DW8313 Weather Reports


Display with metric or nautical units.
time (UTC)temp
F
wind
direction
speed
MPH
gust
MPH
rain 1hr
in
rain 24hr
in
rain mn
in
humidity
%
barometer
mb
20260831231004 84 293 4.0 9.0 0.00 0.00 0.00 39 1008.8
20260831230804 84 298 5.0 9.0 0.00 0.00 0.00 39 1008.9
20260831230605 84 299 5.0 9.0 0.00 0.00 0.00 39 1008.8
20260831230404 84 299 4.0 9.0 0.00 0.00 0.00 38 1008.9
20260831230204 84 301 4.0 9.0 0.00 0.00 0.00 38 1008.9
20260831230025 84 308 4.0 9.0 0.00 0.00 0.00 37 1008.9
20260831225804 84 309 3.0 9.0 0.00 0.00 0.00 36 1008.9
20260831225604 84 313 3.0 10.0 0.00 0.00 0.00 37 1008.9
20260831225404 84 312 3.0 10.0 0.00 0.00 0.00 36 1008.8
20260831225204 84 308 3.0 10.0 0.00 0.00 0.00 36 1008.9
20260831225004 84 295 4.0 10.0 0.00 0.00 0.00 37 1008.9
20260831224804 84 289 3.0 10.0 0.00 0.00 0.00 35 1008.9
20260831224604 84 289 4.0 10.0 0.00 0.00 0.00 35 1009.0
20260831224425 84 290 4.0 11.0 0.00 0.00 0.00 35 1009.0
20260831224225 84 291 4.0 11.0 0.00 0.00 0.00 35 1009.0
20260831224004 84 291 4.0 11.0 0.00 0.00 0.00 34 1009.0
20260831223804 84 290 4.0 11.0 0.00 0.00 0.00 34 1009.1
20260831223604 84 284 4.0 11.0 0.00 0.00 0.00 35 1009.1
20260831223425 84 283 4.0 7.0 0.00 0.00 0.00 34 1009.1
20260831223204 84 277 3.0 7.0 0.00 0.00 0.00 35 1009.1
20260831223004 84 280 4.0 7.0 0.00 0.00 0.00 34 1009.1
20260831222804 84 287 4.0 9.0 0.00 0.00 0.00 34 1009.1
20260831222604 84 285 4.0 9.0 0.00 0.00 0.00 34 1009.2
20260831222404 84 282 3.0 9.0 0.00 0.00 0.00 33 1009.2
20260831222204 84 288 3.0 9.0 0.00 0.00 0.00 33 1009.2
20260831222004 85 288 3.0 9.0 0.00 0.00 0.00 33 1009.2
20260831221804 85 288 3.0 8.0 0.00 0.00 0.00 32 1009.3
20260831221604 84 291 3.0 10.0 0.00 0.00 0.00 32 1009.3
20260831221404 85 291 4.0 10.0 0.00 0.00 0.00 32 1009.3
20260831221204 85 288 4.0 10.0 0.00 0.00 0.00 32 1009.3
20260831221004 85 281 4.0 10.0 0.00 0.00 0.00 32 1009.4
20260831220804 85 280 4.0 10.0 0.00 0.00 0.00 33 1009.4
20260831220625 85 273 3.0 8.0 0.00 0.00 0.00 32 1009.4
20260831220404 85 253 2.0 6.0 0.00 0.00 0.00 33 1009.4
20260831220225 85 242 3.0 9.0 0.00 0.00 0.00 32 1009.4
20260831220025 85 273 3.0 9.0 0.00 0.00 0.00 33 1009.4
20260831215805 84 279 3.0 9.0 0.00 0.00 0.00 33 1009.4
20260831215604 84 294 3.0 9.0 0.00 0.00 0.00 33 1009.4
20260831215404 84 298 3.0 9.0 0.00 0.00 0.00 33 1009.5
20260831215204 84 313 3.0 6.0 0.00 0.00 0.00 34 1009.6
20260831215005 84 315 3.0 9.0 0.00 0.00 0.00 34 1009.5
20260831214804 84 308 4.0 9.0 0.00 0.00 0.00 33 1009.5
20260831214604 84 303 4.0 9.0 0.00 0.00 0.00 34 1009.6
20260831214404 84 298 4.0 9.0 0.00 0.00 0.00 34 1009.6
20260831214204 84 286 4.0 9.0 0.00 0.00 0.00 33 1009.6
20260831214025 84 282 4.0 9.0 0.00 0.00 0.00 34 1009.5
20260831213804 84 285 4.0 8.0 0.00 0.00 0.00 35 1009.6
20260831213604 84 274 3.0 8.0 0.00 0.00 0.00 34 1009.7
20260831213404 84 274 4.0 8.0 0.00 0.00 0.00 33 1009.7
20260831213204 84 281 4.0 8.0 0.00 0.00 0.00 35 1009.8
20260831213004 84 278 3.0 8.0 0.00 0.00 0.00 35 1009.8
20260831212804 84 276 3.0 8.0 0.00 0.00 0.00 35 1009.9
20260831212604 84 285 3.0 8.0 0.00 0.00 0.00 35 1009.8
20260831212425 84 290 3.0 12.0 0.00 0.00 0.00 35 1009.9
20260831212225 84 289 4.0 12.0 0.00 0.00 0.00 35 1009.9
20260831212004 84 284 4.0 12.0 0.00 0.00 0.00 35 1010.0
20260831211804 83 275 4.0 12.0 0.00 0.00 0.00 36 1009.9
20260831211605 84 273 4.0 12.0 0.00 0.00 0.00 34 1009.9
20260831211404 84 276 4.0 10.0 0.00 0.00 0.00 37 1009.9
20260831211204 83 258 4.0 10.0 0.00 0.00 0.00 36 1010.0
20260831211004 83 263 4.0 10.0 0.00 0.00 0.00 37 1010.0
20260831210804 83 274 4.0 10.0 0.00 0.00 0.00 36 1010.0
20260831210603 83 284 4.0 11.0 0.00 0.00 0.00 37 1010.0
20260831210404 83 292 4.0 11.0 0.00 0.00 0.00 34 1010.0
20260831210204 84 292 4.0 11.0 0.00 0.00 0.00 35 1010.0
20260831210005 84 296 4.0 11.0 0.00 0.00 0.00 34 1010.1
20260831205825 84 302 3.0 11.0 0.00 0.00 0.00 35 1010.1
20260831205604 84 303 3.0 10.0 0.00 0.00 0.00 36 1010.1
20260831205404 84 299 3.0 8.0 0.00 0.00 0.00 35 1010.0
20260831205203 83 300 4.0 8.0 0.00 0.00 0.00 38 1010.1
20260831205025 83 302 4.0 8.0 0.00 0.00 0.00 37 1010.2
20260831204804 83 302 4.0 9.0 0.00 0.00 0.00 38 1010.2
20260831204625 83 298 4.0 9.0 0.00 0.00 0.00 39 1010.2
20260831204425 83 294 3.0 9.0 0.00 0.00 0.00 38 1010.1
20260831204204 83 288 3.0 9.0 0.00 0.00 0.00 38 1010.2
20260831204004 83 285 3.0 9.0 0.00 0.00 0.00 38 1010.2
20260831203804 83 285 3.0 8.0 0.00 0.00 0.00 37 1010.2
20260831203604 83 286 4.0 9.0 0.00 0.00 0.00 37 1010.1
20260831203404 82 293 4.0 9.0 0.00 0.00 0.00 37 1010.2
20260831203204 82 295 4.0 9.0 0.00 0.00 0.00 38 1010.2
20260831203004 82 294 4.0 9.0 0.00 0.00 0.00 37 1010.2
20260831202804 82 293 4.0 9.0 0.00 0.00 0.00 38 1010.2
20260831202625 82 289 3.0 9.0 0.00 0.00 0.00 38 1010.2
20260831202404 82 284 4.0 9.0 0.00 0.00 0.00 39 1010.3
20260831202204 82 287 4.0 9.0 0.00 0.00 0.00 39 1010.2
20260831202004 82 292 4.0 9.0 0.00 0.00 0.00 38 1010.2
20260831201804 83 291 3.0 9.0 0.00 0.00 0.00 39 1010.3
20260831201604 83 299 3.0 8.0 0.00 0.00 0.00 39 1010.3
20260831201425 82 297 3.0 6.0 0.00 0.00 0.00 39 1010.2
20260831201225 82 289 3.0 9.0 0.00 0.00 0.00 39 1010.2
20260831201004 82 285 4.0 11.0 0.00 0.00 0.00 39 1010.2
20260831200804 82 285 4.0 11.0 0.00 0.00 0.00 40 1010.3
20260831200604 82 287 4.0 11.0 0.00 0.00 0.00 39 1010.3
20260831200404 82 287 4.0 11.0 0.00 0.00 0.00 40 1010.2
20260831200205 82 284 3.0 9.0 0.00 0.00 0.00 39 1010.2
20260831200004 82 275 3.0 8.0 0.00 0.00 0.00 38 1010.2
20260831195804 82 261 3.0 8.0 0.00 0.00 0.00 38 1010.2
20260831195604 82 267 3.0 8.0 0.00 0.00 0.00 37 1010.3
20260831195404 82 265 3.0 8.0 0.00 0.00 0.00 36 1010.3
20260831195204 82 270 3.0 8.0 0.00 0.00 0.00 38 1010.3
20260831195004 82 265 3.0 8.0 0.00 0.00 0.00 38 1010.3
20260831194804 82 278 3.0 6.0 0.00 0.00 0.00 38 1010.3
20260831194604 82 278 3.0 9.0 0.00 0.00 0.00 37 1010.3
20260831194404 82 283 3.0 9.0 0.00 0.00 0.00 39 1010.4
20260831194204 82 282 3.0 9.0 0.00 0.00 0.00 40 1010.4
20260831194004 82 286 2.0 9.0 0.00 0.00 0.00 40 1010.4
20260831193804 82 279 2.0 9.0 0.00 0.00 0.00 39 1010.3
20260831193625 82 269 2.0 6.0 0.00 0.00 0.00 40 1010.4
20260831193404 82 262 2.0 6.0 0.00 0.00 0.00 39 1010.4
20260831193204 82 270 2.0 6.0 0.00 0.00 0.00 36 1010.4
20260831193004 82 276 3.0 6.0 0.00 0.00 0.00 37 1010.5
20260831192804 81 280 2.0 6.0 0.00 0.00 0.00 37 1010.5
20260831192604 81 284 2.0 6.0 0.00 0.00 0.00 38 1010.5
20260831192404 81 289 2.0 6.0 0.00 0.00 0.00 40 1010.5
20260831192203 81 280 2.0 6.0 0.00 0.00 0.00 41 1010.5
20260831192004 81 285 3.0 8.0 0.00 0.00 0.00 39 1010.5
20260831191804 81 287 4.0 8.0 0.00 0.00 0.00 38 1010.6
20260831191604 80 289 4.0 8.0 0.00 0.00 0.00 38 1010.6
20260831191425 80 292 4.0 8.0 0.00 0.00 0.00 39 1010.6
20260831191204 80 297 4.0 8.0 0.00 0.00 0.00 40 1010.6
20260831191004 80 294 4.0 9.0 0.00 0.00 0.00 41 1010.6
20260831190804 80 293 4.0 9.0 0.00 0.00 0.00 40 1010.7
20260831190604 80 293 4.0 9.0 0.00 0.00 0.00 42 1010.6
20260831190425 80 290 4.0 9.0 0.00 0.00 0.00 40 1010.6
20260831190204 80 290 3.0 9.0 0.00 0.00 0.00 39 1010.6
20260831190004 80 293 3.0 11.0 0.00 0.00 0.00 39 1010.6
20260831185804 80 294 3.0 11.0 0.00 0.00 0.00 39 1010.6
20260831185603 80 295 3.0 11.0 0.00 0.00 0.00 39 1010.7
20260831185404 80 299 3.0 11.0 0.00 0.00 0.00 39 1010.7
20260831185204 80 298 3.0 11.0 0.00 0.00 0.00 38 1010.7
20260831185004 80 294 3.0 10.0 0.00 0.00 0.00 39 1010.8
20260831184804 80 293 4.0 10.0 0.00 0.00 0.00 38 1010.8
20260831184603 80 293 4.0 10.0 0.00 0.00 0.00 38 1010.8
20260831184403 80 292 4.0 10.0 0.00 0.00 0.00 40 1010.8
20260831184203 80 292 4.0 10.0 0.00 0.00 0.00 38 1010.9
20260831184003 80 294 3.0 9.0 0.00 0.00 0.00 39 1010.7
20260831183804 80 294 2.0 8.0 0.00 0.00 0.00 39 1010.8
20260831183604 80 293 2.0 6.0 0.00 0.00 0.00 41 1010.8
20260831183426 80 286 2.0 6.0 0.00 0.00 0.00 40 1010.8
20260831183204 80 281 1.0 6.0 0.00 0.00 0.00 40 1010.8
20260831183025 80 284 2.0 6.0 0.00 0.00 0.00 39 1010.8
20260831182825 80 283 1.0 6.0 0.00 0.00 0.00 34 1010.8
20260831182604 80 280 2.0 6.0 0.00 0.00 0.00 33 1010.8
20260831182404 80 285 2.0 6.0 0.00 0.00 0.00 33 1010.8
20260831182204 80 290 3.0 7.0 0.00 0.00 0.00 34 1010.8
20260831182004 80 291 3.0 7.0 0.00 0.00 0.00 32 1010.9
20260831181804 79 292 3.0 7.0 0.00 0.00 0.00 33 1010.9
20260831181604 79 292 3.0 7.0 0.00 0.00 0.00 34 1010.9
20260831181403 79 293 4.0 9.0 0.00 0.00 0.00 35 1010.9
20260831181205 79 293 3.0 9.0 0.00 0.00 0.00 35 1010.9
20260831181005 79 287 3.0 9.0 0.00 0.00 0.00 33 1010.8
20260831180804 79 287 3.0 9.0 0.00 0.00 0.00 33 1010.9
20260831180625 79 289 2.0 9.0 0.00 0.00 0.00 33 1010.8
20260831180425 79 286 2.0 7.0 0.00 0.00 0.00 33 1010.8
20260831180204 79 264 2.0 7.0 0.00 0.00 0.00 33 1010.8
20260831180004 79 268 1.0 6.0 0.00 0.00 0.00 33 1010.8
20260831175803 79 254 1.0 5.0 0.00 0.00 0.00 33 1010.8
20260831175604 79 245 2.0 6.0 0.00 0.00 0.00 33 1010.8
20260831175404 79 240 2.0 6.0 0.00 0.00 0.00 32 1010.8
20260831175204 79 246 2.0 6.0 0.00 0.00 0.00 33 1010.8
20260831175004 79 253 2.0 6.0 0.00 0.00 0.00 32 1010.8
20260831174825 78 246 2.0 6.0 0.00 0.00 0.00 32 1010.8
20260831174604 78 261 1.0 5.0 0.00 0.00 0.00 32 1010.8
20260831174403 78 274 2.0 5.0 0.00 0.00 0.00 34 1010.9
20260831174204 78 280 1.0 5.0 0.00 0.00 0.00 34 1010.8
20260831174004 78 279 2.0 5.0 0.00 0.00 0.00 34 1010.8
20260831173803 78 291 2.0 5.0 0.00 0.00 0.00 35 1010.7
20260831173604 78 293 2.0 5.0 0.00 0.00 0.00 36 1010.7
20260831173404 78 290 1.0 5.0 0.00 0.00 0.00 37 1010.7
20260831173203 78 286 1.0 5.0 0.00 0.00 0.00 36 1010.8
20260831173004 78 286 1.0 5.0 0.00 0.00 0.00 37 1010.8
20260831172804 77 280 1.0 5.0 0.00 0.00 0.00 38 1010.7
20260831172603 77 286 2.0 5.0 0.00 0.00 0.00 37 1010.7
20260831172404 77 292 2.0 6.0 0.00 0.00 0.00 36 1010.7
20260831172204 77 294 2.0 6.0 0.00 0.00 0.00 36 1010.7
20260831172004 76 296 3.0 6.0 0.00 0.00 0.00 38 1010.7
20260831171804 76 295 3.0 7.0 0.00 0.00 0.00 37 1010.7
20260831171605 76 293 2.0 7.0 0.00 0.00 0.00 37 1010.7
20260831171425 76 292 2.0 7.0 0.00 0.00 0.00 37 1010.6
20260831171203 77 295 2.0 7.0 0.00 0.00 0.00 36 1010.7
20260831171004 77 296 2.0 7.0 0.00 0.00 0.00 37 1010.6
20260831170805 76 301 2.0 6.0 0.00 0.00 0.00 37 1010.5
20260831170604 76 301 2.0 6.0 0.00 0.00 0.00 37 1010.6
20260831170405 77 299 3.0 6.0 0.00 0.00 0.00 37 1010.5
20260831170225 77 298 2.0 6.0 0.00 0.00 0.00 38 1010.5
20260831170004 77 285 2.0 6.0 0.00 0.00 0.00 39 1010.5
20260831165804 77 282 2.0 6.0 0.00 0.00 0.00 39 1010.4
20260831165603 77 279 1.0 6.0 0.00 0.00 0.00 39 1010.3
20260831165425 77 274 1.0 6.0 0.00 0.00 0.00 39 1010.3
20260831165204 77 258 1.0 6.0 0.00 0.00 0.00 40 1010.3
20260831165004 76 266 1.0 5.0 0.00 0.00 0.00 40 1010.2
20260831164804 76 265 1.0 5.0 0.00 0.00 0.00 41 1010.2
20260831164604 76 279 1.0 5.0 0.00 0.00 0.00 41 1010.2
20260831164404 76 271 1.0 5.0 0.00 0.00 0.00 40 1010.2
20260831164204 76 277 1.0 5.0 0.00 0.00 0.00 39 1010.1
20260831164003 76 284 1.0 4.0 0.00 0.00 0.00 41 1010.2
20260831163804 76 288 1.0 4.0 0.00 0.00 0.00 42 1010.2
20260831163603 76 274 1.0 6.0 0.00 0.00 0.00 42 1010.1
20260831163404 75 284 1.0 6.0 0.00 0.00 0.00 42 1010.1
20260831163204 75 289 2.0 6.0 0.00 0.00 0.00 43 1010.1
20260831163003 75 290 2.0 6.0 0.00 0.00 0.00 44 1010.1
20260831162804 75 289 2.0 6.0 0.00 0.00 0.00 44 1010.1
20260831162604 75 290 2.0 5.0 0.00 0.00 0.00 44 1010.1
20260831162404 75 290 2.0 5.0 0.00 0.00 0.00 43 1010.1
20260831162204 75 286 2.0 5.0 0.00 0.00 0.00 43 1010.0
20260831162025 75 288 2.0 5.0 0.00 0.00 0.00 45 1010.1
20260831161804 74 282 1.0 5.0 0.00 0.00 0.00 45 1010.1
20260831161604 74 287 1.0 5.0 0.00 0.00 0.00 44 1010.2
20260831161404 74 287 1.0 5.0 0.00 0.00 0.00 44 1010.2
20260831161204 74 294 1.0 5.0 0.00 0.00 0.00 45 1010.1
20260831161004 74 295 1.0 5.0 0.00 0.00 0.00 45 1010.2
20260831160804 74 296 1.0 5.0 0.00 0.00 0.00 45 1010.2
20260831160604 74 299 1.0 4.0 0.00 0.00 0.00 45 1010.2
20260831160403 74 305 1.0 4.0 0.00 0.00 0.00 45 1010.2
20260831160205 74 297 0.0 4.0 0.00 0.00 0.00 45 1010.2
20260831160004 73 312 0.0 2.0 0.00 0.00 0.00 45 1010.2
20260831155803 73 312 0.0 2.0 0.00 0.00 0.00 46 1010.2
20260831155604 73 310 0.0 2.0 0.00 0.00 0.00 46 1010.1
20260831155404 73 301 0.0 1.0 0.00 0.00 0.00 46 1010.1
20260831155204 73 301 0.0 1.0 0.00 0.00 0.00 46 1010.1
20260831155004 73 292 0.0 1.0 0.00 0.00 0.00 46 1010.1
20260831154825 72 292 0.0 1.0 0.00 0.00 0.00 46 1010.1
20260831154603 72 283 0.0 2.0 0.00 0.00 0.00 47 1010.1
20260831154404 72 283 0.0 2.0 0.00 0.00 0.00 48 1010.1
20260831154225 72 283 0.0 2.0 0.00 0.00 0.00 48 1010.1
20260831154004 72 283 0.0 2.0 0.00 0.00 0.00 51 1010.1
20260831153803 71 284 0.0 2.0 0.00 0.00 0.00 52 1010.1
20260831153604 71 285 0.0 1.0 0.00 0.00 0.00 52 1010.1
20260831153404 71 300 0.0 1.0 0.00 0.00 0.00 52 1010.1
20260831153204 71 300 0.0 1.0 0.00 0.00 0.00 52 1010.1
20260831153004 71 300 0.0 1.0 0.00 0.00 0.00 52 1010.1
20260831152803 71 300 0.0 1.0 0.00 0.00 0.00 52 1010.1
20260831152604 71 300 0.0 1.0 0.00 0.00 0.00 52 1010.1
20260831152404 71 293 0.0 1.0 0.00 0.00 0.00 53 1010.1
20260831152204 71 293 0.0 1.0 0.00 0.00 0.00 53 1010.0
20260831152004 71 293 0.0 1.0 0.00 0.00 0.00 52 1010.0
20260831151804 70 293 0.0 1.0 0.00 0.00 0.00 53 1010.0
20260831151604 70 293 0.0 1.0 0.00 0.00 0.00 53 1010.0
20260831151403 70 0 0.0 0.0 0.00 0.00 0.00 54 1010.0
20260831151204 70 0 0.0 0.0 0.00 0.00 0.00 54 1010.0
20260831151004 71 0 0.0 0.0 0.00 0.00 0.00 54 1010.0
20260831150804 71 0 0.0 0.0 0.00 0.00 0.00 54 1010.0
20260831150625 71 0 0.0 0.0 0.00 0.00 0.00 53 1010.0
20260831150404 71 0 0.0 0.0 0.00 0.00 0.00 52 1010.0
20260831150204 71 0 0.0 0.0 0.00 0.00 0.00 52 1009.9
20260831150025 71 0 0.0 0.0 0.00 0.00 0.00 52 1009.9
20260831145804 72 0 0.0 0.0 0.00 0.00 0.00 50 1010.0
20260831145603 72 0 0.0 0.0 0.00 0.00 0.00 50 1009.9
20260831145404 72 0 0.0 0.0 0.00 0.00 0.00 49 1009.9
20260831145204 73 0 0.0 0.0 0.00 0.00 0.00 50 1009.9
20260831145004 72 0 0.0 0.0 0.00 0.00 0.00 51 1009.9
20260831144804 72 0 0.0 0.0 0.00 0.00 0.00 52 1009.9
20260831144603 71 0 0.0 0.0 0.00 0.00 0.00 52 1009.9
20260831144404 71 0 0.0 0.0 0.00 0.00 0.00 53 1009.9
20260831144204 71 0 0.0 0.0 0.00 0.00 0.00 52 1009.8
20260831144004 71 0 0.0 0.0 0.00 0.00 0.00 52 1009.8
20260831143804 71 0 0.0 0.0 0.00 0.00 0.00 51 1009.9
20260831143604 72 0 0.0 0.0 0.00 0.00 0.00 51 1009.9
20260831143403 72 0 0.0 0.0 0.00 0.00 0.00 51 1009.9
20260831143225 71 0 0.0 0.0 0.00 0.00 0.00 51 1009.9
20260831143025 71 0 0.0 0.0 0.00 0.00 0.00 52 1009.8
20260831142825 70 0 0.0 0.0 0.00 0.00 0.00 53 1009.8
20260831142604 69 0 0.0 0.0 0.00 0.00 0.00 54 1009.8
20260831142403 68 0 0.0 0.0 0.00 0.00 0.00 54 1009.7
20260831142204 68 0 0.0 0.0 0.00 0.00 0.00 55 1009.6
20260831142003 67 0 0.0 0.0 0.00 0.00 0.00 55 1009.6
20260831141804 67 86 0.0 1.0 0.00 0.00 0.00 56 1009.6
20260831141604 66 86 0.0 1.0 0.00 0.00 0.00 57 1009.6
20260831141404 66 86 0.0 1.0 0.00 0.00 0.00 57 1009.7
20260831141203 66 86 0.0 1.0 0.00 0.00 0.00 56 1009.6
20260831141004 66 86 0.0 1.0 0.00 0.00 0.00 56 1009.6
20260831140804 66 0 0.0 0.0 0.00 0.00 0.00 56 1009.6
20260831140625 66 0 0.0 0.0 0.00 0.00 0.00 57 1009.5
20260831140404 65 0 0.0 0.0 0.00 0.00 0.00 57 1009.5
20260831140204 65 0 0.0 0.0 0.00 0.00 0.00 57 1009.4
20260831140004 65 0 0.0 0.0 0.00 0.00 0.00 58 1009.4
20260831135804 65 0 0.0 0.0 0.00 0.00 0.00 58 1009.4
20260831135603 65 0 0.0 0.0 0.00 0.00 0.00 58 1009.3
20260831135404 65 0 0.0 0.0 0.00 0.00 0.00 58 1009.3
20260831135204 65 0 0.0 0.0 0.00 0.00 0.00 58 1009.3
20260831135004 65 0 0.0 0.0 0.00 0.00 0.00 59 1009.3
20260831134803 65 0 0.0 0.0 0.00 0.00 0.00 59 1009.2
20260831134603 65 0 0.0 0.0 0.00 0.00 0.00 59 1009.3
20260831134404 65 0 0.0 0.0 0.00 0.00 0.00 60 1009.3
20260831134203 64 0 0.0 0.0 0.00 0.00 0.00 60 1009.2
20260831134003 64 94 0.0 1.0 0.00 0.00 0.00 60 1009.1
20260831133804 64 94 0.0 1.0 0.00 0.00 0.00 61 1009.1
20260831133603 64 94 0.0 1.0 0.00 0.00 0.00 61 1009.1
20260831133404 64 94 0.0 1.0 0.00 0.00 0.00 61 1009.1
20260831133203 64 94 0.0 1.0 0.00 0.00 0.00 61 1009.1
20260831133004 64 0 0.0 0.0 0.00 0.00 0.00 61 1009.1
20260831132824 64 0 0.0 0.0 0.00 0.00 0.00 61 1009.1
20260831132604 64 0 0.0 0.0 0.00 0.00 0.00 61 1009.1
20260831132404 64 0 0.0 0.0 0.00 0.00 0.00 61 1009.0
20260831132204 64 0 0.0 0.0 0.00 0.00 0.00 61 1009.0
20260831132003 64 0 0.0 0.0 0.00 0.00 0.00 62 1009.0
20260831131824 64 0 0.0 0.0 0.00 0.00 0.00 63 1009.0
20260831131603 64 0 0.0 0.0 0.00 0.00 0.00 63 1008.9
20260831131404 64 0 0.0 0.0 0.00 0.00 0.00 63 1008.9
20260831131203 64 0 0.0 0.0 0.00 0.00 0.00 63 1008.9
20260831131004 64 0 0.0 0.0 0.00 0.00 0.00 62 1008.9
20260831130805 64 0 0.0 0.0 0.00 0.00 0.00 62 1008.9
20260831130604 64 0 0.0 0.0 0.00 0.00 0.00 63 1008.9
20260831130404 64 0 0.0 0.0 0.00 0.00 0.00 64 1008.9
20260831130203 64 142 0.0 1.0 0.00 0.00 0.00 63 1008.9
20260831130025 65 142 0.0 1.0 0.00 0.00 0.00 63 1008.8
20260831125825 65 142 0.0 1.0 0.00 0.00 0.00 63 1008.9
20260831125604 65 142 0.0 1.0 0.00 0.00 0.00 62 1008.8
20260831125404 65 142 0.0 1.0 0.00 0.00 0.00 60 1008.8
20260831125203 65 0 0.0 0.0 0.00 0.00 0.00 59 1008.8
20260831125024 65 94 0.0 1.0 0.00 0.00 0.00 59 1008.8
20260831124804 65 88 0.0 2.0 0.00 0.00 0.00 60 1008.8
20260831124625 64 88 0.0 2.0 0.00 0.00 0.00 60 1008.8
20260831124403 64 88 0.0 2.0 0.00 0.00 0.00 60 1008.8
20260831124203 64 88 0.0 2.0 0.00 0.00 0.00 60 1008.8
20260831124004 64 86 0.0 2.0 0.00 0.00 0.00 60 1008.9
20260831123825 64 85 0.0 1.0 0.00 0.00 0.00 61 1008.8
20260831123604 64 81 0.0 1.0 0.00 0.00 0.00 63 1008.8
20260831123425 64 83 0.0 2.0 0.00 0.00 0.00 63 1008.8
20260831123204 64 86 0.0 2.0 0.00 0.00 0.00 63 1008.8
20260831123004 64 86 0.0 2.0 0.00 0.00 0.00 63 1008.8
20260831122825 64 86 0.0 2.0 0.00 0.00 0.00 64 1008.8
20260831122604 64 87 0.0 2.0 0.00 0.00 0.00 65 1008.7
20260831122403 64 91 0.0 2.0 0.00 0.00 0.00 67 1008.7
20260831122203 64 0 0.0 0.0 0.00 0.00 0.00 68 1008.8
20260831122003 64 0 0.0 0.0 0.00 0.00 0.00 68 1008.8
20260831121804 64 0 0.0 0.0 0.00 0.00 0.00 67 1008.8
20260831121625 64 0 0.0 0.0 0.00 0.00 0.00 68 1008.8
20260831121404 64 0 0.0 0.0 0.00 0.00 0.00 68 1008.7
20260831121203 64 0 0.0 0.0 0.00 0.00 0.00 68 1008.8
20260831121004 64 0 0.0 0.0 0.00 0.00 0.00 69 1008.8
20260831120804 64 0 0.0 0.0 0.00 0.00 0.00 70 1008.8
20260831120604 64 0 0.0 0.0 0.00 0.00 0.00 70 1008.8
20260831120404 63 0 0.0 0.0 0.00 0.00 0.00 70 1008.8
20260831120203 63 0 0.0 0.0 0.00 0.00 0.00 70 1008.8
20260831120004 63 0 0.0 0.0 0.00 0.00 0.00 70 1008.8
20260831115824 64 0 0.0 0.0 0.00 0.00 0.00 70 1008.8
20260831115603 63 0 0.0 0.0 0.00 0.00 0.00 69 1008.8
20260831115424 63 0 0.0 0.0 0.00 0.00 0.00 69 1008.8
20260831115225 63 0 0.0 0.0 0.00 0.00 0.00 69 1008.8
20260831115004 63 89 0.0 1.0 0.00 0.00 0.00 69 1008.8
20260831114804 63 89 0.0 1.0 0.00 0.00 0.00 70 1008.8
20260831114625 63 89 0.0 1.0 0.00 0.00 0.00 70 1008.9
20260831114425 63 89 0.0 1.0 0.00 0.00 0.00 70 1008.8
20260831114203 64 91 0.0 2.0 0.00 0.00 0.00 70 1008.8
20260831114004 64 94 0.0 2.0 0.00 0.00 0.00 72 1008.8
20260831113824 63 91 1.0 2.0 0.00 0.00 0.00 72 1008.8
20260831113604 63 89 1.0 2.0 0.00 0.00 0.00 72 1008.8
20260831113424 63 89 1.0 2.0 0.00 0.00 0.00 72 1008.8
20260831113203 63 89 1.0 2.0 0.00 0.00 0.00 71 1008.8
20260831113024 63 86 1.0 2.0 0.00 0.00 0.00 71 1008.8
20260831112804 63 86 1.0 2.0 0.00 0.00 0.00 71 1008.8
20260831112603 64 86 1.0 2.0 0.00 0.00 0.00 71 1008.8
20260831112404 64 85 0.0 2.0 0.00 0.00 0.00 70 1008.8
20260831112204 64 84 0.0 2.0 0.00 0.00 0.00 71 1008.8
20260831112004 64 93 0.0 1.0 0.00 0.00 0.00 71 1008.8
20260831111804 64 0 0.0 0.0 0.00 0.00 0.00 71 1008.9
20260831111603 64 0 0.0 0.0 0.00 0.00 0.00 71 1008.8
20260831111403 64 0 0.0 0.0 0.00 0.00 0.00 72 1008.9
20260831111204 64 0 0.0 0.0 0.00 0.00 0.00 72 1008.9
20260831111004 64 0 0.0 0.0 0.00 0.00 0.00 72 1008.9
20260831110804 64 0 0.0 0.0 0.00 0.00 0.00 73 1008.9
20260831110604 64 0 0.0 0.0 0.00 0.00 0.00 71 1008.9
20260831110424 65 0 0.0 0.0 0.00 0.00 0.00 71 1008.9
20260831110204 65 0 0.0 0.0 0.00 0.00 0.00 71 1008.8
20260831110003 65 0 0.0 0.0 0.00 0.00 0.00 70 1008.8
20260831105804 65 0 0.0 0.0 0.00 0.00 0.00 69 1008.8
20260831105603 65 0 0.0 0.0 0.00 0.00 0.00 69 1008.7
20260831105404 65 94 0.0 1.0 0.00 0.00 0.00 68 1008.8
20260831105204 65 91 0.0 3.0 0.00 0.00 0.00 71 1008.7
20260831105004 65 90 1.0 3.0 0.00 0.00 0.00 70 1008.8
20260831104804 65 90 1.0 3.0 0.00 0.00 0.00 70 1008.8
20260831104604 65 89 1.0 3.0 0.00 0.00 0.00 71 1008.8
20260831104404 64 87 1.0 3.0 0.00 0.00 0.00 70 1008.8
20260831104204 64 86 1.0 3.0 0.00 0.00 0.00 71 1008.8
20260831104004 64 85 0.0 2.0 0.00 0.00 0.00 71 1008.8
20260831103824 64 85 0.0 2.0 0.00 0.00 0.00 71 1008.8
20260831103604 64 86 0.0 2.0 0.00 0.00 0.00 70 1008.8
20260831103424 64 86 0.0 2.0 0.00 0.00 0.00 70 1008.8
20260831103204 64 82 0.0 1.0 0.00 0.00 0.00 71 1008.8
20260831103004 64 82 0.0 1.0 0.00 0.00 0.00 70 1008.8
20260831102804 64 82 0.0 1.0 0.00 0.00 0.00 71 1008.8
20260831102603 64 0 0.0 0.0 0.00 0.00 0.00 71 1008.7
20260831102404 64 0 0.0 0.0 0.00 0.00 0.00 71 1008.8
20260831102204 64 0 0.0 0.0 0.00 0.00 0.00 70 1008.7
20260831102003 64 0 0.0 0.0 0.00 0.00 0.00 70 1008.7
20260831101825 64 0 0.0 0.0 0.00 0.00 0.00 70 1008.7
20260831101603 64 0 0.0 0.0 0.00 0.00 0.00 70 1008.7
20260831101404 65 0 0.0 0.0 0.00 0.00 0.00 70 1008.6
20260831101204 65 0 0.0 0.0 0.00 0.00 0.00 71 1008.7
20260831101004 65 0 0.0 0.0 0.00 0.00 0.00 72 1008.7
20260831100824 65 0 0.0 0.0 0.00 0.00 0.00 73 1008.7
20260831100603 65 0 0.0 0.0 0.00 0.00 0.00 73 1008.7
20260831100404 64 0 0.0 0.0 0.00 0.00 0.00 73 1008.7
20260831100204 64 0 0.0 0.0 0.00 0.00 0.00 72 1008.7
20260831100025 64 0 0.0 0.0 0.00 0.00 0.00 72 1008.8
20260831095803 64 0 0.0 0.0 0.00 0.00 0.00 72 1008.8
20260831095625 64 0 0.0 0.0 0.00 0.00 0.00 72 1008.7
20260831095404 65 0 0.0 0.0 0.00 0.00 0.00 72 1008.7
20260831095203 65 0 0.0 0.0 0.00 0.00 0.00 71 1008.7
20260831095004 65 91 0.0 1.0 0.00 0.00 0.00 71 1008.7
20260831094804 65 91 0.0 1.0 0.00 0.00 0.00 72 1008.7
20260831094603 65 91 0.0 1.0 0.00 0.00 0.00 72 1008.7
20260831094425 65 91 0.0 1.0 0.00 0.00 0.00 73 1008.7
20260831094203 65 91 0.0 1.0 0.00 0.00 0.00 73 1008.8
20260831094003 65 0 0.0 0.0 0.00 0.00 0.00 73 1008.8
20260831093803 65 0 0.0 0.0 0.00 0.00 0.00 73 1008.8
20260831093604 65 0 0.0 0.0 0.00 0.00 0.00 73 1008.8
20260831093403 65 0 0.0 0.0 0.00 0.00 0.00 73 1008.8
20260831093204 65 0 0.0 0.0 0.00 0.00 0.00 73 1008.8
20260831093004 65 0 0.0 0.0 0.00 0.00 0.00 73 1008.8
20260831092803 65 0 0.0 0.0 0.00 0.00 0.00 74 1008.7
20260831092604 65 0 0.0 0.0 0.00 0.00 0.00 73 1008.7
20260831092403 65 0 0.0 0.0 0.00 0.00 0.00 73 1008.7
20260831092204 65 0 0.0 0.0 0.00 0.00 0.00 72 1008.7
20260831092004 65 0 0.0 0.0 0.00 0.00 0.00 72 1008.6
20260831091804 65 0 0.0 0.0 0.00 0.00 0.00 72 1008.6
20260831091605 65 102 0.0 1.0 0.00 0.00 0.00 72 1008.6
20260831091404 65 102 0.0 1.0 0.00 0.00 0.00 72 1008.6
20260831091204 65 102 0.0 1.0 0.00 0.00 0.00 72 1008.6
20260831091005 65 102 0.0 1.0 0.00 0.00 0.00 72 1008.6
20260831090803 65 102 0.0 1.0 0.00 0.00 0.00 72 1008.7
20260831090604 65 0 0.0 0.0 0.00 0.00 0.00 72 1008.6
20260831090425 65 0 0.0 0.0 0.00 0.00 0.00 72 1008.6
20260831090204 65 0 0.0 0.0 0.00 0.00 0.00 71 1008.6
20260831090004 65 0 0.0 0.0 0.00 0.00 0.00 71 1008.6
20260831085803 65 0 0.0 0.0 0.00 0.00 0.00 71 1008.6
20260831085604 66 0 0.0 0.0 0.00 0.00 0.00 70 1008.7
20260831085404 66 0 0.0 0.0 0.00 0.00 0.00 70 1008.6
20260831085204 66 0 0.0 0.0 0.00 0.00 0.00 70 1008.7
20260831085004 66 0 0.0 0.0 0.00 0.00 0.00 69 1008.7
20260831084803 66 0 0.0 0.0 0.00 0.00 0.00 69 1008.7
20260831084603 66 0 0.0 0.0 0.00 0.00 0.00 70 1008.8
20260831084404 66 0 0.0 0.0 0.00 0.00 0.00 68 1008.8
20260831084224 66 0 0.0 0.0 0.00 0.00 0.00 68 1008.8
20260831084025 66 0 0.0 0.0 0.00 0.00 0.00 68 1008.7
20260831083804 66 0 0.0 0.0 0.00 0.00 0.00 68 1008.7
20260831083604 67 0 0.0 0.0 0.00 0.00 0.00 68 1008.7
20260831083404 67 0 0.0 0.0 0.00 0.00 0.00 68 1008.7
20260831083204 66 0 0.0 0.0 0.00 0.00 0.00 68 1008.7
20260831083004 66 0 0.0 0.0 0.00 0.00 0.00 67 1008.7
20260831082803 66 0 0.0 0.0 0.00 0.00 0.00 67 1008.7
20260831082624 66 0 0.0 0.0 0.00 0.00 0.00 66 1008.7
20260831082403 66 0 0.0 0.0 0.00 0.00 0.00 66 1008.7
20260831082225 66 0 0.0 0.0 0.00 0.00 0.00 66 1008.8
20260831082004 66 0 0.0 0.0 0.00 0.00 0.00 65 1008.8
20260831081804 66 0 0.0 0.0 0.00 0.00 0.00 65 1008.8
20260831081603 66 0 0.0 0.0 0.00 0.00 0.00 65 1008.8
20260831081404 66 0 0.0 0.0 0.00 0.00 0.00 66 1008.8
20260831081204 66 0 0.0 0.0 0.00 0.00 0.00 66 1008.8
20260831081003 66 0 0.0 0.0 0.00 0.00 0.00 65 1008.8
20260831080803 66 0 0.0 0.0 0.00 0.00 0.00 65 1008.8
20260831080603 66 0 0.0 0.0 0.00 0.00 0.00 65 1008.8
20260831080403 66 0 0.0 0.0 0.00 0.00 0.00 65 1008.8
20260831080203 66 0 0.0 0.0 0.00 0.00 0.00 65 1008.8
20260831080004 66 0 0.0 0.0 0.00 0.00 0.00 66 1008.8
20260831075803 66 0 0.0 0.0 0.00 0.00 0.00 66 1008.9
20260831075604 66 0 0.0 0.0 0.00 0.00 0.00 66 1008.9
20260831075403 66 0 0.0 0.0 0.00 0.00 0.00 66 1008.8
20260831075204 66 0 0.0 0.0 0.00 0.00 0.00 67 1008.9
20260831075003 66 0 0.0 0.0 0.00 0.00 0.00 68 1008.9
20260831074825 66 89 0.0 1.0 0.00 0.00 0.00 68 1008.9
20260831074603 66 90 0.0 2.0 0.00 0.00 0.00 68 1008.9
20260831074403 66 90 0.0 2.0 0.00 0.00 0.00 67 1008.9
20260831074204 66 89 1.0 2.0 0.00 0.00 0.00 68 1008.9
20260831074003 66 89 1.0 2.0 0.00 0.00 0.00 68 1008.8
20260831073803 66 88 1.0 2.0 0.00 0.00 0.00 68 1008.8
20260831073624 66 88 0.0 2.0 0.00 0.00 0.00 68 1008.9
20260831073404 66 85 0.0 2.0 0.00 0.00 0.00 67 1008.9
20260831073204 66 0 0.0 0.0 0.00 0.00 0.00 67 1008.9
20260831073004 66 0 0.0 0.0 0.00 0.00 0.00 67 1008.8
20260831072803 67 0 0.0 0.0 0.00 0.00 0.00 67 1008.8
20260831072624 67 0 0.0 0.0 0.00 0.00 0.00 68 1008.9
20260831072404 67 0 0.0 0.0 0.00 0.00 0.00 68 1008.9
20260831072225 67 0 0.0 0.0 0.00 0.00 0.00 68 1008.9
20260831072004 67 0 0.0 0.0 0.00 0.00 0.00 68 1008.8
20260831071804 67 0 0.0 0.0 0.00 0.00 0.00 68 1008.9
20260831071625 67 0 0.0 0.0 0.00 0.00 0.00 68 1008.8
20260831071404 67 0 0.0 0.0 0.00 0.00 0.00 68 1008.9
20260831071204 67 0 0.0 0.0 0.00 0.00 0.00 68 1008.8
20260831071004 67 0 0.0 0.0 0.00 0.00 0.00 68 1008.8
20260831070803 67 0 0.0 0.0 0.00 0.00 0.00 69 1008.8
20260831070603 67 0 0.0 0.0 0.00 0.00 0.00 69 1008.8
20260831070404 67 0 0.0 0.0 0.00 0.00 0.00 70 1008.7
20260831070204 66 0 0.0 0.0 0.00 0.00 0.00 70 1008.7
20260831070004 66 0 0.0 0.0 0.00 0.00 0.00 71 1008.6
20260831065804 66 0 0.0 0.0 0.00 0.00 0.00 72 1008.6
20260831065603 67 0 0.0 0.0 0.00 0.00 0.00 72 1008.6
20260831065403 66 94 0.0 2.0 0.00 0.00 0.00 73 1008.6
20260831065225 66 91 0.0 2.0 0.00 0.00 0.00 73 1008.6
20260831065003 66 90 1.0 2.0 0.00 0.00 0.00 73 1008.6
20260831064804 66 90 1.0 2.0 0.00 0.00 0.00 73 1008.6
20260831064604 66 90 1.0 2.0 0.00 0.00 0.00 73 1008.7
20260831064403 67 89 1.0 2.0 0.00 0.00 0.00 73 1008.6
20260831064203 67 89 1.0 2.0 0.00 0.00 0.00 73 1008.6
20260831064004 67 89 0.0 2.0 0.00 0.00 0.00 73 1008.6
20260831063803 67 88 0.0 2.0 0.00 0.00 0.00 73 1008.6
20260831063603 67 88 0.0 2.0 0.00 0.00 0.00 73 1008.6
20260831063403 67 88 0.0 2.0 0.00 0.00 0.00 72 1008.6
20260831063203 67 88 0.0 2.0 0.00 0.00 0.00 72 1008.7
20260831063003 67 88 0.0 2.0 0.00 0.00 0.00 73 1008.6
20260831062803 67 89 0.0 1.0 0.00 0.00 0.00 73 1008.7
20260831062603 67 89 0.0 1.0 0.00 0.00 0.00 73 1008.7
20260831062425 67 89 0.0 1.0 0.00 0.00 0.00 72 1008.7
20260831062203 68 89 0.0 2.0 0.00 0.00 0.00 72 1008.7
20260831062004 68 91 1.0 2.0 0.00 0.00 0.00 72 1008.7
20260831061803 68 91 1.0 2.0 0.00 0.00 0.00 72 1008.7
20260831061604 68 91 1.0 2.0 0.00 0.00 0.00 71 1008.7
20260831061404 68 92 1.0 2.0 0.00 0.00 0.00 71 1008.6
20260831061203 68 93 0.0 2.0 0.00 0.00 0.00 71 1008.6
20260831061004 68 97 0.0 2.0 0.00 0.00 0.00 71 1008.7
20260831060803 68 99 0.0 1.0 0.00 0.00 0.00 71 1008.7
20260831060604 68 97 0.0 2.0 0.00 0.00 0.00 71 1008.6
20260831060403 68 96 0.0 2.0 0.00 0.00 0.00 71 1008.6
20260831060225 68 96 0.0 2.0 0.00 0.00 0.00 71 1008.6
20260831060004 68 96 0.0 2.0 0.00 0.00 0.00 71 1008.6
20260831055803 68 96 0.0 2.0 0.00 0.00 0.00 71 1008.7
20260831055604 68 96 0.0 2.0 0.00 0.00 0.00 71 1008.6
20260831055425 68 0 0.0 0.0 0.00 0.00 0.00 70 1008.6
20260831055203 68 0 0.0 0.0 0.00 0.00 0.00 70 1008.6
20260831055004 69 0 0.0 0.0 0.00 0.00 0.00 70 1008.7
20260831054804 69 103 0.0 1.0 0.00 0.00 0.00 70 1008.7
20260831054625 69 103 0.0 1.0 0.00 0.00 0.00 70 1008.7
20260831054403 69 103 0.0 1.0 0.00 0.00 0.00 69 1008.7
20260831054204 69 103 0.0 1.0 0.00 0.00 0.00 69 1008.7
20260831054003 69 103 0.0 1.0 0.00 0.00 0.00 69 1008.7
20260831053803 69 91 0.0 2.0 0.00 0.00 0.00 70 1008.7
20260831053603 69 84 0.0 2.0 0.00 0.00 0.00 70 1008.7
20260831053403 69 84 0.0 2.0 0.00 0.00 0.00 69 1008.8
20260831053204 69 84 0.0 2.0 0.00 0.00 0.00 70 1008.8
20260831053024 69 84 0.0 2.0 0.00 0.00 0.00 70 1008.8
20260831052804 69 58 0.0 1.0 0.00 0.00 0.00 70 1008.8
20260831052603 69 0 0.0 0.0 0.00 0.00 0.00 70 1008.8
20260831052424 69 0 0.0 0.0 0.00 0.00 0.00 70 1008.8
20260831052203 69 0 0.0 0.0 0.00 0.00 0.00 69 1008.8
20260831052024 69 0 0.0 0.0 0.00 0.00 0.00 69 1008.8
20260831051804 69 0 0.0 0.0 0.00 0.00 0.00 69 1008.8
20260831051603 69 0 0.0 0.0 0.00 0.00 0.00 69 1008.8
20260831051403 70 101 0.0 1.0 0.00 0.00 0.00 68 1008.9
20260831051204 70 101 0.0 1.0 0.00 0.00 0.00 68 1008.8
20260831051003 70 101 0.0 1.0 0.00 0.00 0.00 68 1008.8
20260831050803 70 101 0.0 1.0 0.00 0.00 0.00 68 1008.8
20260831050604 70 101 0.0 1.0 0.00 0.00 0.00 67 1008.8
20260831050404 70 98 0.0 1.0 0.00 0.00 0.00 67 1008.8
20260831050205 70 89 0.0 1.0 0.00 0.00 0.00 67 1008.7
20260831050003 70 89 0.0 1.0 0.00 0.00 0.00 67 1008.7
20260831045804 70 89 0.0 1.0 0.00 0.00 0.00 67 1008.7
20260831045625 70 89 0.0 1.0 0.00 0.00 0.00 67 1008.7
20260831045424 70 89 0.0 1.0 0.00 0.00 0.00 67 1008.7
20260831045204 70 87 0.0 2.0 0.00 0.00 0.00 67 1008.7
20260831045004 70 87 0.0 2.0 0.00 0.00 0.00 67 1008.7
20260831044803 71 87 0.0 2.0 0.00 0.00 0.00 66 1008.7
20260831044603 71 87 0.0 2.0 0.00 0.00 0.00 66 1008.7
20260831044404 71 86 0.0 2.0 0.00 0.00 0.00 66 1008.7
20260831044203 71 86 0.0 2.0 0.00 0.00 0.00 66 1008.6
20260831044004 71 86 0.0 2.0 0.00 0.00 0.00 66 1008.6
20260831043803 71 86 0.0 2.0 0.00 0.00 0.00 66 1008.5
20260831043603 71 86 0.0 2.0 0.00 0.00 0.00 66 1008.5
20260831043404 71 86 0.0 2.0 0.00 0.00 0.00 65 1008.5
20260831043204 71 0 0.0 0.0 0.00 0.00 0.00 65 1008.6
20260831043024 71 0 0.0 0.0 0.00 0.00 0.00 65 1008.6
20260831042804 72 0 0.0 0.0 0.00 0.00 0.00 65 1008.6
20260831042603 72 0 0.0 0.0 0.00 0.00 0.00 65 1008.6
20260831042403 72 0 0.0 0.0 0.00 0.00 0.00 65 1008.6
20260831042204 72 0 0.0 0.0 0.00 0.00 0.00 64 1008.5
20260831042003 72 0 0.0 0.0 0.00 0.00 0.00 64 1008.4
20260831041804 72 0 0.0 0.0 0.00 0.00 0.00 64 1008.4
20260831041604 72 0 0.0 0.0 0.00 0.00 0.00 64 1008.4
20260831041425 72 0 0.0 0.0 0.00 0.00 0.00 64 1008.4
20260831041204 72 0 0.0 0.0 0.00 0.00 0.00 63 1008.4
20260831040804 72 0 0.0 0.0 0.00 0.00 0.00 62 1008.4
20260831040604 72 0 0.0 0.0 0.00 0.00 0.00 62 1008.4
20260831040404 72 0 0.0 0.0 0.00 0.00 0.00 62 1008.3
20260831040204 72 0 0.0 0.0 0.00 0.00 0.00 62 1008.2
20260831040003 72 0 0.0 0.0 0.00 0.00 0.00 62 1008.2
20260831035804 72 0 0.0 0.0 0.00 0.00 0.00 61 1008.2
20260831035604 72 0 0.0 0.0 0.00 0.00 0.00 61 1008.1
20260831035403 73 0 0.0 0.0 0.00 0.00 0.00 61 1008.2
20260831035204 73 0 0.0 0.0 0.00 0.00 0.00 61 1008.2
20260831035025 73 0 0.0 0.0 0.00 0.00 0.00 60 1008.2
20260831034825 73 0 0.0 0.0 0.00 0.00 0.00 60 1008.1
20260831034604 73 0 0.0 0.0 0.00 0.00 0.00 59 1008.1
20260831034404 73 0 0.0 0.0 0.00 0.00 0.00 59 1008.0
20260831034204 73 0 0.0 0.0 0.00 0.00 0.00 59 1008.0
20260831034025 73 0 0.0 0.0 0.00 0.00 0.00 58 1008.0
20260831033824 73 0 0.0 0.0 0.00 0.00 0.00 58 1007.9
20260831033603 73 0 0.0 0.0 0.00 0.00 0.00 58 1007.9
20260831033403 73 0 0.0 0.0 0.00 0.00 0.00 58 1007.9
20260831033204 74 0 0.0 0.0 0.00 0.00 0.00 58 1007.8
20260831033003 74 0 0.0 0.0 0.00 0.00 0.00 58 1007.8
20260831032803 74 0 0.0 0.0 0.00 0.00 0.00 57 1007.9
20260831032604 74 0 0.0 0.0 0.00 0.00 0.00 57 1007.8
20260831032424 74 0 0.0 0.0 0.00 0.00 0.00 57 1007.7
20260831032203 74 0 0.0 0.0 0.00 0.00 0.00 57 1007.7
20260831032003 74 0 0.0 0.0 0.00 0.00 0.00 56 1007.7
20260831031804 74 0 0.0 0.0 0.00 0.00 0.00 56 1007.7
20260831031603 74 100 0.0 1.0 0.00 0.00 0.00 56 1007.6
20260831031425 75 94 0.0 1.0 0.00 0.00 0.00 56 1007.6
20260831031204 75 94 0.0 1.0 0.00 0.00 0.00 56 1007.5
20260831031025 75 94 0.0 1.0 0.00 0.00 0.00 56 1007.5
20260831030804 75 96 0.0 3.0 0.00 0.00 0.00 55 1007.5
20260831030603 75 96 0.0 3.0 0.00 0.00 0.00 55 1007.3
20260831030403 75 96 0.0 3.0 0.00 0.00 0.00 54 1007.4
20260831030204 76 96 0.0 3.0 0.00 0.00 0.00 54 1007.4
20260831030003 76 96 0.0 3.0 0.00 0.00 0.00 53 1007.4
20260831025804 76 0 0.0 0.0 0.00 0.00 0.00 54 1007.4
20260831025603 76 0 0.0 0.0 0.00 0.00 0.00 54 1007.4
20260831025404 76 346 0.0 1.0 0.00 0.00 0.00 54 1007.3
20260831025225 77 348 0.0 2.0 0.00 0.00 0.00 54 1007.3
20260831025025 77 348 0.0 2.0 0.00 0.00 0.00 53 1007.3
20260831024804 77 348 0.0 2.0 0.00 0.00 0.00 52 1007.3
20260831024604 77 336 0.0 3.0 0.00 0.00 0.00 52 1007.3
20260831024424 77 332 0.0 3.0 0.00 0.00 0.00 52 1007.3
20260831024204 78 320 0.0 3.0 0.00 0.00 0.00 52 1007.3
20260831024004 78 329 0.0 3.0 0.00 0.00 0.00 51 1007.2
20260831023803 78 329 0.0 3.0 0.00 0.00 0.00 51 1007.3
20260831023603 78 324 0.0 3.0 0.00 0.00 0.00 50 1007.3
20260831023404 78 324 0.0 3.0 0.00 0.00 0.00 49 1007.2
20260831023225 78 326 0.0 3.0 0.00 0.00 0.00 49 1007.2
20260831023025 78 320 0.0 3.0 0.00 0.00 0.00 48 1007.2
20260831022804 79 320 0.0 3.0 0.00 0.00 0.00 47 1007.2
20260831022604 79 309 0.0 2.0 0.00 0.00 0.00 47 1007.2
20260831022404 79 300 0.0 4.0 0.00 0.00 0.00 45 1007.1
20260831022224 79 307 0.0 4.0 0.00 0.00 0.00 45 1007.2
20260831022003 79 320 1.0 4.0 0.00 0.00 0.00 44 1007.1
20260831021804 80 321 1.0 4.0 0.00 0.00 0.00 44 1007.1
20260831021603 80 322 1.0 4.0 0.00 0.00 0.00 43 1007.1
20260831021404 80 321 1.0 4.0 0.00 0.00 0.00 43 1007.1
20260831021203 80 320 1.0 4.0 0.00 0.00 0.00 42 1007.1
20260831021003 80 307 1.0 4.0 0.00 0.00 0.00 41 1007.1
20260831020825 81 312 1.0 4.0 0.00 0.00 0.00 41 1007.1
20260831020624 81 318 1.0 4.0 0.00 0.00 0.00 41 1007.1
20260831020403 81 320 1.0 4.0 0.00 0.00 0.00 40 1007.1
20260831020203 81 323 1.0 4.0 0.00 0.00 0.00 40 1007.1
20260831020003 81 315 1.0 4.0 0.00 0.00 0.00 39 1007.0
20260831015804 82 307 2.0 5.0 0.00 0.00 0.00 39 1007.1
20260831015603 82 298 2.0 5.0 0.00 0.00 0.00 39 1007.2
20260831015403 82 295 2.0 5.0 0.00 0.00 0.00 38 1007.1
20260831015224 82 291 3.0 8.0 0.00 0.00 0.00 37 1007.2
20260831015003 82 290 3.0 8.0 0.00 0.00 0.00 37 1007.2
20260831014803 82 289 4.0 8.0 0.00 0.00 0.00 36 1007.1
20260831014624 82 290 4.0 8.0 0.00 0.00 0.00 35 1007.1
20260831014404 82 290 4.0 8.0 0.00 0.00 0.00 34 1007.2
20260831014204 82 290 3.0 7.0 0.00 0.00 0.00 32 1007.2
20260831014003 83 290 3.0 7.0 0.00 0.00 0.00 32 1007.2
20260831013803 83 291 3.0 7.0 0.00 0.00 0.00 33 1007.3
20260831013604 83 290 3.0 7.0 0.00 0.00 0.00 34 1007.2
20260831013403 83 292 3.0 9.0 0.00 0.00 0.00 33 1007.3
20260831013203 83 293 3.0 9.0 0.00 0.00 0.00 31 1007.3
20260831013004 83 296 3.0 9.0 0.00 0.00 0.00 31 1007.3
20260831012803 83 297 3.0 9.0 0.00 0.00 0.00 31 1007.2
20260831012603 83 299 3.0 9.0 0.00 0.00 0.00 31 1007.2
20260831012403 83 300 3.0 8.0 0.00 0.00 0.00 33 1007.2
20260831012203 84 302 3.0 7.0 0.00 0.00 0.00 39 1007.2
20260831012003 84 302 3.0 8.0 0.00 0.00 0.00 38 1007.2
20260831011804 84 299 3.0 8.0 0.00 0.00 0.00 38 1007.1
20260831011603 84 301 3.0 8.0 0.00 0.00 0.00 36 1007.2
20260831011403 84 303 3.0 8.0 0.00 0.00 0.00 37 1007.1
20260831011204 84 305 3.0 9.0 0.00 0.00 0.00 38 1007.2
20260831011004 84 303 3.0 9.0 0.00 0.00 0.00 41 1007.1
20260831010804 84 300 3.0 9.0 0.00 0.00 0.00 42 1007.1
20260831010603 84 299 3.0 9.0 0.00 0.00 0.00 42 1007.1
20260831010403 84 295 4.0 9.0 0.00 0.00 0.00 42 1007.1
20260831010225 84 291 3.0 8.0 0.00 0.00 0.00 41 1007.1
20260831010004 84 292 4.0 8.0 0.00 0.00 0.00 39 1007.1
20260831005803 84 294 4.0 10.0 0.00 0.00 0.00 41 1007.0
20260831005604 84 290 4.0 10.0 0.00 0.00 0.00 41 1007.0
20260831005403 84 292 4.0 10.0 0.00 0.00 0.00 42 1007.1
20260831005203 84 293 4.0 10.0 0.00 0.00 0.00 42 1007.1
20260831005003 85 294 4.0 10.0 0.00 0.00 0.00 40 1007.1
20260831004804 85 295 4.0 6.0 0.00 0.00 0.00 40 1007.0
20260831004624 85 299 4.0 7.0 0.00 0.00 0.00 40 1007.0
20260831004403 85 299 3.0 9.0 0.00 0.00 0.00 40 1006.9
20260831004224 85 298 4.0 9.0 0.00 0.00 0.00 40 1007.0
20260831004003 85 296 4.0 9.0 0.00 0.00 0.00 40 1007.0
20260831003803 86 298 4.0 9.0 0.00 0.00 0.00 41 1007.0
20260831003603 86 298 4.0 9.0 0.00 0.00 0.00 41 1006.9
20260831003403 86 297 4.0 9.0 0.00 0.00 0.00 41 1006.9
20260831003203 86 295 5.0 9.0 0.00 0.00 0.00 40 1006.9
20260831003004 86 294 4.0 9.0 0.00 0.00 0.00 41 1006.9
20260831002803 86 291 3.0 9.0 0.00 0.00 0.00 41 1006.9
20260831002603 86 287 3.0 9.0 0.00 0.00 0.00 41 1007.0
20260831002404 86 288 3.0 9.0 0.00 0.00 0.00 41 1006.9
20260831002204 86 286 3.0 9.0 0.00 0.00 0.00 41 1007.0
20260831002003 86 289 4.0 9.0 0.00 0.00 0.00 42 1006.9
20260831001825 86 289 4.0 9.0 0.00 0.00 0.00 42 1006.9
20260831001604 86 292 4.0 10.0 0.00 0.00 0.00 42 1006.9
20260831001425 86 292 4.0 10.0 0.00 0.00 0.00 41 1006.9
20260831001203 86 292 4.0 10.0 0.00 0.00 0.00 41 1006.9
20260831001025 86 292 4.0 10.0 0.00 0.00 0.00 42 1006.8
20260831000803 86 292 4.0 9.0 0.00 0.00 0.00 41 1006.9
20260831000604 86 290 4.0 9.0 0.00 0.00 0.00 41 1006.9
20260831000403 86 290 4.0 9.0 0.00 0.00 0.00 40 1006.8
20260831000204 86 292 4.0 9.0 0.00 0.00 0.00 40 1006.8
20260831000004 86 293 4.0 9.0 0.00 0.00 0.00 40 1006.8
20260830235803 87 295 4.0 9.0 0.00 0.00 0.00 40 1006.8
20260830235624 87 296 4.0 9.0 0.00 0.00 0.00 40 1006.8
20260830235425 87 297 4.0 9.0 0.00 0.00 0.00 40 1006.8
20260830235203 87 296 4.0 10.0 0.00 0.00 0.00 41 1006.8
20260830235004 86 294 5.0 10.0 0.00 0.00 0.00 40 1006.7
20260830234803 86 294 5.0 10.0 0.00 0.00 0.00 40 1006.8
20260830234604 86 294 6.0 11.0 0.00 0.00 0.00 40 1006.8
20260830234403 86 293 6.0 13.0 0.00 0.00 0.00 40 1006.8
20260830234203 87 294 6.0 13.0 0.00 0.00 0.00 39 1006.8
20260830234003 87 294 5.0 13.0 0.00 0.00 0.00 39 1006.8
20260830233804 87 296 5.0 13.0 0.00 0.00 0.00 39 1006.8
20260830233604 88 295 5.0 13.0 0.00 0.00 0.00 38 1006.8
20260830233404 87 297 4.0 10.0 0.00 0.00 0.00 38 1006.8
20260830233203 87 295 5.0 10.0 0.00 0.00 0.00 38 1006.7
20260830233003 87 297 5.0 9.0 0.00 0.00 0.00 38 1006.8
20260830232803 87 299 5.0 9.0 0.00 0.00 0.00 37 1006.7
20260830232603 88 305 5.0 9.0 0.00 0.00 0.00 37 1006.8
20260830232424 88 308 5.0 9.0 0.00 0.00 0.00 37 1006.7
20260830232204 88 312 4.0 9.0 0.00 0.00 0.00 37 1006.7
20260830232004 88 314 4.0 9.0 0.00 0.00 0.00 36 1006.7
20260830231803 88 311 4.0 12.0 0.00 0.00 0.00 35 1006.7
20260830231603 88 304 5.0 12.0 0.00 0.00 0.00 36 1006.7
20260830231404 88 292 5.0 12.0 0.00 0.00 0.00 35 1006.7
20260830231204 88 290 5.0 12.0 0.00 0.00 0.00 36 1006.7